This demonstration page uses our WeatherBlox Daily Observations layout. Learn more.

Left ArrowRight Arrow

Hourly Observations for May 8, 2017

Temp ( °F °C ) Dew Point ( °F °C ) Humidity (%) Winds ( mph kmh ) Pressure ( in mb ) Visibility ( mi km ) Precip ( " mm )
12:52 am 00:52 Clear 65 18.3 56 13.3 73 73 SSE 9 15 29.97 1015 10 16 0.00 0.00
1:52 am 01:52 Clear 64 17.8 56 13.3 75 75 SSE 9 15 29.97 1015 10 16 0.00 0.00
2:52 am 02:52 Clear 63 17.2 56 13.3 78 78 SSE 8 13 29.97 1015 10 16 0.00 0.00
3:52 am 03:52 Clear 60 15.6 55 12.8 84 84 S 7 11 29.98 1015 10 16 0.00 0.00
4:52 am 04:52 Clear 61 16.1 55 12.8 81 81 S 6 9 29.98 1015 10 16 0.00 0.00
5:52 am 05:52 Clear 60 15.6 55 12.8 84 84 S 6 9 29.99 1016 10 16 0.00 0.00
6:52 am 06:52 Sunny 61 16.1 56 13.3 84 84 S 7 11 30.00 1016 10 16 0.00 0.00
7:52 am 07:52 Sunny 65 18.3 57 13.9 76 76 S 7 11 30.02 1017 10 16 0.00 0.00
8:52 am 08:52 Sunny 69 20.6 58 14.4 68 68 S 8 13 30.04 1017 10 16 0.00 0.00
9:52 am 09:52 Sunny 73 22.8 59 15 62 62 SSW 6 9 30.06 1018 10 16 0.00 0.00
10:52 am 10:52 Sunny 76 24.4 59 15 56 56 SW 9 15 30.06 1018 10 16 0.00 0.00
11:52 am 11:52 Mostly Sunny 77 25 57 13.9 50 50 S 7 11 30.05 1018 10 16 0.00 0.00
12:52 pm 12:52 Sunny 79 26.1 59 15 50 50 SSW 12 19 30.04 1017 10 16 0.00 0.00
1:52 pm 13:52 Mostly Sunny 80 26.7 59 15 49 49 SW 13 20 30.02 1017 10 16 0.00 0.00
2:52 pm 14:52 Mostly Sunny 81 27.2 58 14.4 45 45 SSW 7 11 30.00 1016 10 16 0.00 0.00
3:52 pm 15:52 Sunny 81 27.2 58 14.4 45 45 SW 10 17 29.98 1015 10 16 0.00 0.00
4:52 pm 16:52 Sunny 81 27.2 57 13.9 44 44 S 10 17 29.96 1015 10 16 0.00 0.00
5:52 pm 17:52 Sunny 81 27.2 58 14.4 45 45 S 10 17 29.95 1014 10 16 0.00 0.00
6:52 pm 18:52 Sunny 79 26.1 59 15 50 50 S 8 13 29.93 1014 10 16 0.00 0.00
7:52 pm 19:52 Sunny 75 23.9 58 14.4 55 55 SSW 9 15 29.94 1014 10 16 0.00 0.00
8:52 pm 20:52 Clear 68 20 58 14.4 70 70 SSW 7 11 29.94 1014 10 16 0.00 0.00
9:52 pm 21:52 Clear 68 20 56 13.3 65 65 SSW 8 13 29.95 1014 10 16 0.00 0.00
10:52 pm 22:52 Clear 65 18.3 56 13.3 73 73 SSW 8 13 29.95 1014 10 16 0.00 0.00
11:52 pm 23:52 Clear 64 17.8 56 13.3 75 75 SSW 8 13 29.95 1014 10 16 0.00 0.00

Powered by AerisWeather